Location: Blangy-Tronville
(49.8790°N, 2.4226°E)
Time: 00:48:32
(UTC+00:00)

IGS 5A - Pass Details

Date: 18 November 2025
Orbit: 549 x 559 km, 97.4° (Epoch: 02 December)

Event Time Altitude Azimuth Distance (km) Brightness Sun altitude
Rises 16:43:41 0° 164° (SSE) 2,712 6.9 -6.7°
Reaches altitude 10° 16:45:48 10° 163° (SSE) 1,822 6.0 -7.1°
Maximum altitude 16:49:45 84° 76° (ENE) 560 3.3 -7.7°
Drops below altitude 10° 16:53:43 10° 348° (NNW) 1,836 5.9 -8.3°
Sets 16:55:52 0° 348° (NNW) 2,735 6.8 -8.6°
